Find Shiyan Weixing 1

NORAD ID: 28220 Int'l Des: 2004-012 Owner: CASC Country: CN operational
LEOCIRCULARRETROGRADE

現在のビュー

3D地球を読み込み中...

About Shiyan Weixing 1

Shiyan Weixing 1 (NORAD 28220) is a satellite launched Apr 18, 2004 by CASC of CN. It operates in LEO, CIRCULAR, RETROGRADE orbit with a mass of 204.00 kg.

次回通過

Passes for default location (London). Set your location on the main map for personalized predictions.

高度履歴

Loading altitude history...

軌道要素

1 28220U 04012A 26194.20906281 .00008263 00000-0 25047-3 0 9991
2 28220 97.8692 273.9793 0004070 284.5782 75.5008 15.34420203215089
Epoch: Jul 13, 2026 • Age: 20 hours

現在のステータス

高度 465.4 km
遠地点 / 近地点 N/A
速度 7.64 km/s
衛星直下点 17.84°N, 41.21°W
打ち上げ日 Apr 18, 2004
運用期間 22.2 years
タイプ other

技術仕様

分類 Payload
質量 204.00 kg
乾燥質量 204.00 kg
総質量 204.00 kg
長さ 1.00 m
直径 1.00 m
スパン 3.00 m
形状 Box + 2 Pan
製造者 DFH/HARB
バスタイプ SY
フェーズステータス In Orbit
所有者/国 CASC/CN

Most Searched